Location: Unspecified
(0.0000°N, 0.0000°E)
Time: 18:02:23
(UTC+00:00)

COSMOS 2416 - Pass Details

Date: 17 May 2026
Orbit: 1436 x 1449 km, 82.5° (Epoch: 10 June)

Event Time Altitude Azimuth Distance (km) Brightness Sun altitude
Rises 19:20:16 0° 329° (NNW) 4,520 10.1 -19.7°
Reaches altitude 10° 19:23:51 10° 315° (NW) 3,542 9.7 -20.5°
Maximum altitude 19:30:06 23° 267° (W) 2,664 8.7 -22.0°
Drops below altitude 10° 19:36:24 10° 218° (SW) 3,546 8.9 -23.5°
Sets 19:40:02 0° 204° (SSW) 4,525 9.3 -24.3°
